Flag for Argentina Weather past 2 weeks in Corrientes, Corrientes, Argentina

Now
59 °F

Passing clouds.


Feels Like: 58 °F
Forecast: 60 / 75 °F
Wind: 7 mph from Southwest

Location: Resistencia Aero.

Current Time: Sep 3, 2015 at 6:10:34 AM

Latest Report: Sep 3, 2015 at 5:00 AM


Visibility: N/A

Pressure: 30.04 "Hg

Humidity: 88%

Dew point: 55 °F

Location of CorrientesLocation

Historic Weather in Corrientes — Graph

°F

Corrientes temperature yesterday

Maximum temperature yesterday: 73 °F (at 3:00 PM)
Minimum temperature yesterday: 55 °F (at 7:00 AM)
Average temperature yesterday: 64 °F

Past Weeks' High & Low Weather Summary

 TemperatureHumidityPressure
High97 °F (Aug 31, 2:00 PM)100% (Aug 19, 6:00 AM)30.18 "Hg (Aug 19, 6:00 AM)
Low46 °F (Aug 21, 5:00 AM)20% (Aug 27, 2:00 PM)29.65 "Hg (Aug 22, 3:00 PM)
Average68 °F71%29.96 "Hg
* Reported Aug 19 5:00 AM — Sep 3 5:00 AM, Corrientes, Weather by CustomWeather, © 2015

Note: Actual official high and low records may vary slightly from our data, if they occured in-between our weather recording intervals... More about our weather records

Advertising

Corrientes weather history for previous 24 hours

 ConditionsComfort  
Time TempWeatherWind HumidityBarometerVisibility
5:00 AM
Thu, Sep 3
59 °FPassing clouds.7 mph88%30.04 "HgN/A
4:00 AM63 °FPassing clouds.7 mph77%30.04 "HgN/A
3:00 AM63 °FPassing clouds.6 mph77%30.01 "HgN/A
2:00 AM63 °FPartly cloudy.8 mph83%30.04 "HgN/A
1:00 AM63 °FPassing clouds.6 mph88%30.04 "HgN/A
12:00 AM64 °FPartly cloudy.5 mph83%30.04 "Hg4 mi
11:00 PM
Wed, Sep 2
64 °FClear.3 mph83%30.04 "Hg3 mi
10:00 PM66 °FClear.3 mph83%30.04 "Hg3 mi
9:00 PM66 °FClear.5 mph78%30.01 "Hg3 mi
8:00 PM66 °FClear.6 mph78%30.01 "Hg3 mi
6:00 PM72 °FClear.7 mph69%29.98 "Hg4 mi
5:00 PM72 °FScattered clouds.9 mph65%29.98 "Hg5 mi
4:00 PM73 °FScattered clouds.8 mph65%29.98 "Hg5 mi
3:00 PM73 °FPassing clouds.8 mph65%29.98 "Hg5 mi
2:00 PM72 °FPartly sunny.7 mph65%30.01 "Hg5 mi
1:00 PM72 °FClear.6 mph65%30.04 "Hg5 mi
12:00 PM68 °FClear.3 mph64%30.07 "Hg5 mi
11:00 AM66 °FPassing clouds.6 mph68%30.09 "HgN/A
8:00 AM57 °FClear.3 mph88%30.09 "Hg4 mi
7:00 AM55 °FPassing clouds.5 mph94%30.07 "HgN/A
6:00 AM57 °FClear.3 mph88%30.07 "Hg10 mi
Weather by CustomWeather, © 2015

See weather overviewHow to use our weather pages